Stations météo

Publicité
Montauban, France (7540): Température de l'air & dewpoint: 16.01.2019 03:00:00 - 22.01.2019 03:00:00 (CET)Montauban, France (7540): Température de l'air 5cm: 16.01.2019 03:00:00 - 22.01.2019 03:00:00 (CET)Montauban, France (7540): Température de l'air -20cm & Température de l'air -100cm: 16.01.2019 03:00:00 - 22.01.2019 03:00:00 (CET)Montauban, France (7540): Vitesse du vent & gusts: 16.01.2019 03:00:00 - 22.01.2019 03:00:00 (CET)Montauban, France (7540): Direction du vent: 16.01.2019 03:00:00 - 22.01.2019 03:00:00 (CET)Montauban, France (7540): reduced air pressure: 16.01.2019 03:00:00 - 22.01.2019 03:00:00 (CET)Montauban, France (7540): visibility: 16.01.2019 03:00:00 - 22.01.2019 03:00:00 (CET)Montauban, France (7540): Ensoleillement: 16.01.2019 03:00:00 - 22.01.2019 03:00:00 (CET)Montauban, France (7540): Quantités de précipitations: 16.01.2019 03:00:00 - 22.01.2019 03:00:00 (CET)
Date & Time tt [°C] td [°C] tt 5cm [°C] tt -20cm [°C] tt -100cm [°C] ff [km/h] ff [knt] fx [km/h] fx [knt] dd ppp [hPa] vv [km] sd [min] rr [mm]
22.01.2019 03:00:00 0,8 -0,2 -1,1 7,0 9,5 6 3 10 5 W 1021,3 11 0 0,0
22.01.2019 02:00:00 2,0 0,4 1,2 7,0 9,5 6 3 10 5 NW 1021,5 14 0 0,0
22.01.2019 01:00:00 2,7 0,3 2,0 7,0 9,4 5 3 13 7 NW 1022,3 18 0 0,0
22.01.2019 00:00:00 2,8 1,2 2,5 7,1 9,5 4 2 11 6 NW 1022,7 15 0 0,0
21.01.2019 23:00:00 3,0 0,9 1,8 7,1 9,5 6 3 18 10 WNW 1022,9 17 0 0,0
21.01.2019 22:00:00 2,4 1,1 0,7 7,2 9,5 8 4 16 8 WNW 1023,0 15 0 0,0
21.01.2019 21:00:00 3,1 1,3 2,1 7,2 9,5 9 5 20 11 W 1022,7 17 0 0,0
21.01.2019 20:00:00 4,0 1,5 3,3 7,2 9,5 12 6 31 17 W 1022,3 20 0 0,0
21.01.2019 19:00:00 4,5 1,7 4,2 7,1 9,5 18 10 28 15 WNW 1021,9 20 0 0,0
21.01.2019 18:00:00 4,9 1,7 4,5 7,1 9,4 15 8 29 16 WNW 1021,8 20 0 0,0
21.01.2019 17:00:00 5,5 2,3 5,3 7,1 9,4 16 9 27 15 WNW 1021,6 20 0 0,0
21.01.2019 16:00:00 6,1 2,0 6,1 7,0 9,5 17 9 27 15 WNW 1021,3 20 0 0,0
21.01.2019 15:00:00 6,8 1,9 6,6 7,0 9,5 15 8 29 16 NNW 1021,2 20 0 0,0
21.01.2019 14:00:00 6,8 1,7 7,1 7,0 9,5 18 10 31 17 NNW 1021,3 20 18 0,0
21.01.2019 13:00:00 6,9 2,2 7,6 6,9 9,5 19 10 29 15 NW 1021,7 20 14 0,0
21.01.2019 12:00:00 6,7 3,1 6,3 6,9 9,5 18 10 28 15 NW 1022,0 20 6 0,0
21.01.2019 11:00:00 5,2 2,9 5,8 6,9 9,5 13 7 19 10 WNW 1022,0 20 0 0,0
21.01.2019 10:00:00 5,4 3,2 4,2 6,9 9,5 8 4 11 6 WNW 1021,4 20 24 0,0
21.01.2019 09:00:00 5,0 3,0 4,3 7,0 9,5 5 3 14 8 NNW 1020,9 20 0 0,0
21.01.2019 08:00:00 5,2 3,5 4,4 7,0 9,5 8 4 15 8 NW 1020,2 20 0 0,0
21.01.2019 07:00:00 5,3 3,6 4,4 7,0 9,5 6 3 18 10 NNW 1019,7 20 0 0,0
21.01.2019 06:00:00 5,4 4,2 4,7 7,0 9,5 10 6 18 10 NW 1019,1 20 0 0,0
21.01.2019 05:00:00 5,4 4,7 4,8 7,0 9,5 9 5 14 7 NW 1018,7 19 0 0,0
21.01.2019 04:00:00 5,5 4,9 4,9 7,0 9,5 6 3 8 4 NW 1018,6 13 0 0,0
21.01.2019 03:00:00 5,4 4,8 4,8 7,0 9,5 3 2 7 4 W 1018,5 10 0 0,0
21.01.2019 02:00:00 5,3 4,7 3,5 7,1 9,5 4 2 8 4 W 1018,3 7 0 0,0
21.01.2019 01:00:00 4,5 3,9 1,5 7,1 9,5 2 1 6 4 WNW 1018,4 3,1 0 0,0
21.01.2019 00:00:00 4,7 4,0 1,3 7,1 9,5 3 1 9 5 NW 1018,0 1,0 0 0,0
20.01.2019 23:00:00 6,0 5,1 5,3 7,0 9,5 5 3 8 4 WNW 1017,6 6 0 0,4
20.01.2019 22:00:00 6,3 5,3 5,7 7,0 9,5 6 3 11 6 WNW 1017,0 9 0 0,0
20.01.2019 21:00:00 6,4 5,0 5,7 6,9 9,5 6 3 10 5 WNW 1016,6 16 0 0,0
20.01.2019 20:00:00 6,7 5,0 5,9 6,9 9,5 5 3 8 4 WNW 1016,1 16 0 0,0
20.01.2019 19:00:00 7,0 5,3 6,4 6,8 9,5 5 3 8 5 NW 1015,6 20 0 0,0
20.01.2019 18:00:00 7,2 5,3 6,8 6,7 9,5 6 3 14 7 WNW 1015,1 17 0 0,0
20.01.2019 17:00:00 8,3 5,6 8,2 6,6 9,5 4 2 8 4 W 1014,4 20 26 0,0
20.01.2019 16:00:00 8,4 5,5 8,3 6,6 9,5 2 1 11 6 NW 1014,0 19 2 0,2
20.01.2019 15:00:00 8,4 6,0 7,1 6,5 9,5 5 3 10 5 W 1013,9 19 5 0,0
20.01.2019 14:00:00 7,3 5,4 7,1 6,5 9,5 5 3 10 5 WNW 1014,1 15 2 0,0
20.01.2019 13:00:00 7,6 5,1 8,7 6,4 9,5 4 2 7 4 WSW 1014,0 18 0 0,0
20.01.2019 12:00:00 6,3 4,8 6,9 6,4 9,5 0 0 4 2 N 1014,2 13 2 0,0
20.01.2019 11:00:00 4,7 4,3 4,8 6,5 9,5 0 0 5 3 N 1014,0 19 21 0,0
20.01.2019 10:00:00 3,2 2,8 1,3 6,5 9,5 0 0 4 2 N 1013,3 12 18 0,0
20.01.2019 09:00:00 1,2 0,9 -0,3 6,6 9,5 2 1 4 2 SSE 1012,7 6 13 0,0
20.01.2019 08:00:00 2,0 1,7 0,3 6,6 9,5 0 0 6 3 N 1012,2 11 0 0,0
20.01.2019 07:00:00 1,8 1,5 0,7 6,7 9,5 3 2 7 4 E 1011,6 7 0 0,0
20.01.2019 06:00:00 1,3 1,0 0,0 6,7 9,5 2 1 4 2 SSE 1011,3 6 0 0,0
20.01.2019 05:00:00 1,1 0,7 -1,0 6,8 9,5 0 0 4 2 N 1011,2 6 0 0,0
20.01.2019 04:00:00 1,3 0,9 -0,9 6,8 9,5 0 0 4 2 N 1011,0 2,4 0 0,0
20.01.2019 03:00:00 2,3 1,9 0,7 6,9 9,5 0 0 4 2 N 1010,6 7 0 0,0
20.01.2019 02:00:00 2,1 1,5 0,7 6,9 9,5 2 1 5 3 W 1010,4 3,6 0 0,0
20.01.2019 01:00:00 2,5 1,9 0,5 6,9 9,5 2 1 7 4 ENE 1010,3 6 0 0,0
20.01.2019 00:00:00 3,0 2,3 1,1 7,0 9,5 0 0 10 5 N 1010,4 7 0 0,0
19.01.2019 23:00:00 3,7 3,0 1,5 7,0 9,5 7 4 11 6 ENE 1010,2 12 0 0,0
19.01.2019 22:00:00 4,1 3,2 2,8 7,0 9,5 6 3 9 5 ENE 1010,3 15 0 0,0
19.01.2019 21:00:00 4,7 3,8 3,2 7,0 9,5 5 3 9 5 ENE 1010,4 18 0 0,0
19.01.2019 20:00:00 5,2 4,2 2,4 7,0 9,5 5 3 12 6 ENE 1010,6 20 0 0,0
19.01.2019 19:00:00 5,9 4,7 4,8 6,9 9,5 9 5 13 7 E 1010,8 20 0 0,0
19.01.2019 18:00:00 6,6 5,1 5,6 6,8 9,5 8 5 13 7 E 1011,0 20 13 0,0
19.01.2019 17:00:00 7,6 5,6 7,5 6,7 9,5 7 4 13 7 SE 1011,2 20 11 0,0
19.01.2019 16:00:00 8,5 5,9 9,1 6,7 9,5 8 5 11 6 SE 1011,7 20 4 0,0
19.01.2019 15:00:00 8,6 6,0 8,2 6,6 9,5 5 3 11 6 ESE 1012,4 20 24 0,0
19.01.2019 14:00:00 6,9 5,7 6,3 6,6 9,5 7 4 14 8 SE 1013,3 18 0 0,2
19.01.2019 13:00:00 5,6 4,6 6,0 6,6 9,5 7 4 17 9 S 1014,4 6 0 0,2
19.01.2019 12:00:00 5,5 4,1 5,7 6,6 9,5 9 5 18 10 S 1015,2 16 0 0,0
19.01.2019 11:00:00 5,4 4,4 4,7 6,6 9,5 11 6 20 11 S 1015,5 14 3 0,0
19.01.2019 10:00:00 4,0 3,6 3,3 6,6 9,5 7 4 11 6 S 1015,5 6 0 0,0
19.01.2019 09:00:00 3,0 2,7 1,6 6,7 9,5 0 0 4 2 N 1015,5 6 0 0,0
19.01.2019 08:00:00 2,3 2,0 1,7 6,7 9,5 3 1 4 2 ESE 1015,3 3,3 0 0,0
19.01.2019 07:00:00 2,1 1,8 1,3 6,8 9,6 0 0 6 4 N 1015,2 2,4 0 0,0
19.01.2019 06:00:00 2,0 1,7 -0,3 6,8 9,5 5 3 8 4 E 1015,4 1,4 0 0,0
19.01.2019 05:00:00 1,1 0,7 -0,8 6,9 9,5 2 1 4 2 E 1015,8 1,3 0 0,0
19.01.2019 04:00:00 2,5 2,1 0,9 6,9 9,5 0 0 6 3 N 1015,9 3,5 0 0,0
19.01.2019 03:00:00 2,6 2,2 0,9 7,0 9,6 2 1 9 5 ENE 1016,2 4,7 0 0,0
19.01.2019 02:00:00 1,7 1,3 0,2 7,0 9,5 0 0 4 2 N 1016,5 2,8 0 0,0
19.01.2019 01:00:00 1,1 0,5 -0,5 7,0 9,5 0 0 6 3 N 1017,1 0,1 0 0,0
19.01.2019 00:00:00 3,2 2,6 0,4 7,0 9,6 2 1 7 4 NNE 1017,5 2,5 0 0,0
18.01.2019 23:00:00 4,4 3,5 2,2 7,0 9,5 0 0 4 2 N 1017,3 5 0 0,0
18.01.2019 22:00:00 4,8 3,9 3,5 7,0 9,6 0 0 5 3 N 1017,1 7 0 0,0
18.01.2019 21:00:00 5,1 3,9 4,6 7,0 9,6 0 0 4 2 N 1017,4 10 0 0,0
18.01.2019 20:00:00 5,3 3,9 4,8 6,9 9,6 2 1 4 2 ESE 1017,7 12 0 0,0
18.01.2019 19:00:00 5,1 3,9 4,4 6,9 9,5 0 0 10 5 N 1017,5 12 0 0,0
18.01.2019 18:00:00 5,4 4,0 5,1 6,8 9,6 6 3 10 5 E 1017,6 15 0 0,0
18.01.2019 17:00:00 5,9 4,4 6,1 6,7 9,6 6 3 8 5 E 1017,8 16 0 0,0
18.01.2019 16:00:00 6,1 4,3 7,2 6,6 9,6 4 2 9 5 ENE 1017,7 18 0 0,0
18.01.2019 15:00:00 6,1 4,3 8,0 6,6 9,6 5 3 11 6 N 1017,9 20 0 0,0
18.01.2019 14:00:00 6,2 4,8 8,0 6,5 9,6 3 2 8 5 WNW 1018,4 17 1 0,0
18.01.2019 13:00:00 4,9 4,5 5,9 6,5 9,6 2 1 11 6 WSW 1019,2 13 0 0,0
18.01.2019 12:00:00 4,3 4,0 5,2 6,5 9,6 3 1 11 6 W 1020,3 15 0 0,0
18.01.2019 11:00:00 3,7 3,4 3,4 6,5 9,6 4 2 11 6 S 1020,5 5 0 0,0
18.01.2019 10:00:00 2,6 2,3 2,6 6,6 9,6 7 4 9 5 S 1020,5 0,3 0 0,0
18.01.2019 09:00:00 2,3 2,0 2,0 6,6 9,6 2 1 5 3 E 1020,1 0,2 0 0,0
18.01.2019 08:00:00 1,8 1,5 1,4 6,6 9,6 0 0 5 3 N 1020,5 0,2 0 0,0
18.01.2019 07:00:00 1,4 1,1 1,0 6,7 9,6 3 2 5 3 SSE 1020,2 0,2 0 0,0
18.01.2019 06:00:00 1,4 1,1 0,5 6,8 9,6 0 0 7 4 N 1020,2 0,2 0 0,0
18.01.2019 05:00:00 0,7 0,4 0,0 6,9 9,6 4 2 5 3 E 1020,7 0,2 0 0,0
18.01.2019 04:00:00 0,5 0,2 -1,4 7,0 9,6 0 0 5 3 N 1021,1 0,2 0 0,0
18.01.2019 03:00:00 -0,1 -0,5 -3,0 7,0 9,6 0 0 3 1 N 1021,1 5 0 0,0
18.01.2019 02:00:00 -0,2 -0,8 -2,8 7,1 9,6 0 0 2 1 N 1021,2 0,5 0 0,0
18.01.2019 01:00:00 0,7 0,0 -1,9 7,2 9,6 0 0 6 3 N 1021,3 0,7 0 0,0
18.01.2019 00:00:00 2,7 1,8 -0,7 7,2 9,6 3 2 8 5 WNW 1021,5 13 0 0,0
17.01.2019 23:00:00 3,5 2,8 -1,0 7,3 9,6 6 3 9 5 W 1021,3 17 0 0,0
17.01.2019 22:00:00 3,1 2,1 -0,5 7,3 9,6 2 1 9 5 W 1021,1 9 0 0,0
17.01.2019 21:00:00 4,5 3,2 2,3 7,3 9,6 7 4 12 7 W 1020,6 17 0 0,0
17.01.2019 20:00:00 5,7 4,0 3,8 7,3 9,6 8 4 15 8 WNW 1020,3 20 0 0,0
17.01.2019 19:00:00 6,7 4,5 5,1 7,2 9,6 9 5 15 8 W 1019,3 20 0 0,0
17.01.2019 18:00:00 6,9 3,9 5,1 7,2 9,6 8 4 32 17 WNW 1018,7 20 0 0,0
17.01.2019 17:00:00 9,0 5,6 7,5 7,1 9,6 11 6 25 14 WNW 1018,5 20 17 0,0
17.01.2019 16:00:00 8,3 5,4 7,1 7,0 9,6 9 5 24 13 W 1018,2 17 0 0,4
17.01.2019 15:00:00 9,8 5,6 8,3 7,0 9,6 15 8 31 17 WNW 1017,9 16 16 0,0
17.01.2019 14:00:00 10,4 6,9 10,0 6,9 9,6 16 8 25 14 W 1018,0 20 15 0,0
17.01.2019 13:00:00 8,9 7,7 8,8 6,9 9,6 7 4 16 8 WNW 1018,9 19 0 0,0
17.01.2019 12:00:00 8,4 7,5 8,4 6,8 9,6 8 5 14 8 WNW 1019,4 13 0 0,0
17.01.2019 11:00:00 7,8 7,0 7,5 6,8 9,6 9 5 14 8 W 1019,2 7 0 0,0
17.01.2019 10:00:00 7,0 6,4 5,9 6,8 9,6 8 4 12 6 WNW 1018,4 3,9 0 0,0
17.01.2019 09:00:00 6,1 5,4 5,8 6,8 9,6 7 4 13 7 WNW 1017,5 2,9 0 0,0
17.01.2019 08:00:00 6,5 5,6 6,0 6,8 9,6 6 3 12 7 W 1016,4 4,3 0 0,4
17.01.2019 07:00:00 6,3 5,1 5,6 6,8 9,6 3 2 8 5 SW 1015,9 2,9 0 0,6
17.01.2019 06:00:00 6,1 4,6 5,0 6,8 9,6 3 2 10 5 SSW 1015,6 11 0 0,8
17.01.2019 05:00:00 6,1 4,1 5,2 6,8 9,6 3 2 8 5 S 1015,8 15 0 0,0
17.01.2019 04:00:00 6,1 4,3 5,2 6,8 9,6 2 1 7 4 E 1016,3 15 0 0,2
17.01.2019 03:00:00 6,3 3,6 4,3 6,8 9,6 3 2 6 3 SSE 1016,7 15 0 0,0
17.01.2019 02:00:00 6,1 2,9 4,2 6,8 9,6 3 2 15 8 S 1016,8 19 0 0,0
17.01.2019 01:00:00 6,9 3,1 5,5 6,8 9,6 9 5 15 8 S 1017,0 20 0 0,0
17.01.2019 00:00:00 7,4 3,4 6,0 6,8 9,6 7 4 13 7 S 1017,3 19 0 0,0
16.01.2019 23:00:00 6,5 3,8 1,1 6,8 9,6 8 4 13 7 S 1017,5 18 0 0,0
16.01.2019 22:00:00 6,0 2,8 1,9 6,7 9,6 0 0 9 5 N 1017,9 17 0 0,0
16.01.2019 21:00:00 7,6 3,6 3,6 6,7 9,6 7 4 10 5 SSW 1017,5 16 0 0,0
16.01.2019 20:00:00 7,9 4,3 5,9 6,7 9,6 4 2 8 5 SSE 1017,3 17 0 0,0
16.01.2019 19:00:00 8,6 4,8 6,9 6,6 9,6 4 2 9 5 SE 1016,8 18 0 0,0
16.01.2019 18:00:00 9,8 4,2 5,7 6,5 9,6 3 1 10 5 W 1016,7 19 3 0,0
16.01.2019 17:00:00 11,9 4,1 12,0 6,4 9,6 8 4 16 8 SW 1016,2 20 58 0,0
16.01.2019 16:00:00 12,5 4,7 13,8 6,2 9,6 9 5 16 9 S 1015,9 20 60 0,0
16.01.2019 15:00:00 12,3 4,8 15,6 6,1 9,6 10 5 18 10 S 1016,1 20 60 0,0
16.01.2019 14:00:00 11,4 4,6 14,2 6,1 9,6 11 6 23 12 S 1016,2 19 60 0,0
16.01.2019 13:00:00 10,1 3,4 12,0 6,2 9,6 9 5 18 10 S 1017,1 19 60 0,0
16.01.2019 12:00:00 6,1 2,7 9,1 6,3 9,6 2 1 6 4 ENE 1017,7 17 60 0,0
16.01.2019 11:00:00 3,5 1,4 3,3 6,4 9,6 2 1 6 3 E 1018,1 14 60 0,0
16.01.2019 10:00:00 0,1 -0,8 -2,2 6,5 9,6 2 1 5 3 E 1018,3 11 60 0,0
16.01.2019 09:00:00 -2,3 -2,9 -6,2 6,6 9,6 2 1 7 4 E 1017,9 10 10 0,0
16.01.2019 08:00:00 -3,6 -4,1 -6,3 6,7 9,6 0 0 3 1 N 1017,9 8 0 0,0
16.01.2019 07:00:00 -3,0 -3,5 -5,9 6,8 9,6 0 0 4 2 N 1017,9 11 0 0,0
16.01.2019 06:00:00 -3,0 -3,5 -6,1 6,9 9,6 2 1 4 2 SE 1018,0 9 0 0,0
16.01.2019 05:00:00 -2,5 -3,1 -5,7 7,0 9,6 0 0 3 1 N 1018,4 11 0 0,0
16.01.2019 04:00:00 -2,7 -3,2 -5,4 7,1 9,6 0 0 3 2 N 1018,9 12 0 0,0
16.01.2019 03:00:00 -2,5 -3,1 -5,0 7,2 9,6 3 1 10 5 E 1019,1 10 0 0,0

tt = Température de l'air
td = dewpoint
tt 5cm = Température de l'air 5cm
tt -20cm = Température de l'air -20cm
tt -100cm = Température de l'air -100cm
ff = Vitesse du vent
fx = gusts
dd = Direction du vent
ppp = reduced air pressure
vv = visibility
sd = Ensoleillement
rr = Quantités de précipitations

stations d'obs. à proximité